Back to catalog

QIANFAN-24

AliveCommunicationsPO
NORAD 61557·PAYLOAD·🇨🇳 China

Launched Oct 15, 2024 from Taiyuan Satellite Launch Center

Loading…

Next Passes (next 24 hours)

TLE

FreshSource: Space-Track

Epoch: Sep 14, 2026, 13:27 UTC

1 61557U 24185F   26257.56105251  .00000448  00000-0  18832-3 0  9992
2 61557  88.9826  44.9757 0011555 114.4142 245.8257 14.24153046109279

Track QIANFAN-24 in real time with AllMySat

Download on the App Store